COSMOS 2514 (751)

Last updated on Tue Mar 10 2026 00:03:25 GMT+0000 (Coordinated Universal Time)

1 41330U 16008A 26067.86357269 -.00000057 00000+0 00000+0 0 9994 2 41330 65.0799 316.4521 0009060 208.1993 151.8085 2.13102747 78480
UTC large
Height (km)
Speed (km/s)
/
Latitude / Longitude
Inclination (degrees)
Orbital Period (minutes)
Azimuth
Elevation
Range (km)
Doppler Factor

Next 0 passes for location: London (51.5072 / 0.1276)

Sorry there are no passes over London.